THOR ABLESTAR DEB, 245

Orbit data source: Space-Track

THOR ABLESTAR DEB, 245 is space debris in LEO originally from a launch on Thu, 29 Jun 1961 UTC launched from the Air Force Eastern Test Range (AFETR). Debris objects in space refer to the collection of defunct objects orbiting the Earth. Examples of debris include non-operational satellites, rocket bodies, and fragments generated from explosions, collisions, or faulty payload assembly.

Loading next visibility...
THOR ABLESTAR DEB details
Identifier
245, 1961-015CA
Orbit
LEO
Last TLE update20 hours ago
Origin
Flag of USUSAF SSD (US)
ManufacturerUnknown
MissionSpacecraft
Bus & MotorUnknown
MassUnknown
Launch date (UTC)
1961-06-29 (64 years ago)
Launch vehicleUnknown
Launch site
Air Force Eastern Test Range (AFETR)
Object type
Payload
Rocket body
Debris
Shape & HBRUnknown
Radar Cross SectionMedium (>0.1 m² and <1 m²)

Expand to show TLE details & history

TLE from 20 hours ago
0 THOR ABLESTAR DEB
1 00245U 61015CA  25035.39743721  .00001941  00000-0  99640-3 0  9991
2 00245  66.1033  38.3839 0042753 137.5557 222.8850 14.17139499257313
Epoch: 2025-02-04T09:32Z
Definitive object data (Epoch: 2025-02-04T09:32:18.574Z)
Latitude0.00002°
Longitude120.5032°
Altitude859.75 km
Speed7.411 km/s
True Right ascension02h 33m 32s
True Declination0° 00' 00"
Sunlit
Object was in daylight at TLE epoch
Visualization TLE readout
Latitude15.11793°
Longitude125.11248°
Altitude851.921 km
Speed7.42 km/s
Apparent Right ascension00h 15m 17s
Apparent Declination-16° 13' 32"
Sunlit
Object is in daylight
Visualization observer readout
Local Sidereal Time07:58:34
Azimuth273.578° WNW
Elevation-30.004°
Doppler factor1
Orbital elements
Apogee altitude864.33 km
Perigee altitude802.666 km
Semi-major axis7,211.635 km
Eccentricity0.0042753
Inclination66.1033°
RAAN38.3839°
Arg. of periapsis137.5557°
True anomaly222.5529°
Mean anomaly222.885°
Eccentric anomaly222.71882°
Mean motion3.54399 °/min
BSTAR0.0009964
Orbital period101.58 mins
Loading maneuver chart data...

THOR ABLESTAR DEB Visibility forecast

Observer location: undefined°, undefined

Span
Click to sort rows by Start time (UTC) header in descending order
Start Az.
Max El. time (UTC)
Max El. Az.
Max El.
End time (UTC)
End Az.
9 mins2025-02-05 09:46:28.941Z348.212° N2025-02-05 09:51:28.941Z54.496° ENE27.034°2025-02-05 09:55:28.941Z108.202° ESE
8 mins2025-02-05 11:32:28.941Z305.368° NW2025-02-05 11:35:28.941Z256.477° W32.025°2025-02-05 11:40:28.941Z181.946° SSW
8 mins2025-02-06 00:37:28.941Z161.43° S2025-02-06 00:40:28.941Z120.147° SE26.987°2025-02-06 00:45:28.941Z51.971° ENE
9 mins2025-02-06 02:21:28.941Z246.002° WSW2025-02-06 02:25:28.941Z311.423° NW32.305°2025-02-06 02:30:28.941Z16.128° NNE
|